Location: Ansan
(43.6898°N, 0.7731°E)
Time: 08:30:46
(UTC+00:00)

Cosmos 1743 - Pass Details

Date: 15 May 2026
Orbit: 368 x 373 km, 82.5° (Epoch: 6 June)

Event Time Altitude Azimuth Distance (km) Brightness Sun altitude
Rises 19:41:57 0° 358° (N) 2,249 6.5 -5.0°
Reaches altitude 10° 19:44:00 10° 5° (N) 1,395 5.3 -5.3°
Maximum altitude 19:46:53 43° 79° (ENE) 550 2.5 -5.7°
Drops below altitude 10° 19:49:47 10° 153° (SSE) 1,392 4.4 -6.2°
Enters shadow 19:50:47 - 157° (SSE) 1,805 4.9 -6.3°
